Regional Weather Roundup
Issued by NWS State College, PA

Home | Current Version | Previous Version | Text Only | Print | Product List | Glossary On
Versions: 1 2 3 4 5 6 7 8 9 10 11 12 13 14 15 16 17 18 19 20 21 22 23 24 25 26 27 28 29 30 31 32 33 34 35 36 37 38 39 40 41 42 43 44 45 46 47 48 49 50
000
ASUS41 KCTP 291803
RWRCTP

REGIONAL WEATHER ROUNDUP
NATIONAL WEATHER SERVICE STATE COLLEGE PA
200 PM EDT WED JUL 29 2015

Note: "fair" indicates few or no clouds below 12,000 feet with no
significant weather and/or obstructions to visibility.

* = STATION THAT DOES NOT REPORT PRECIPITATION /E.G. RAIN...SNOW...ETC/
    THUNDER OR FOG.

PAZ002>004-007>009-013>016-020>023-029>032-291900-
WESTERN PENNSYLVANIA

CITY           SKY/WX    TMP DP  RH WIND       PRES   REMARKS
ERIE           MOSUNNY   87  70  56 NW6       29.95F
MEADVILLE      PTSUNNY   86  66  51 SW9       30.00F
FRANKLIN*      PTSUNNY   84  66  54 S10       30.03S
NEW CASTLE     MOCLDY    89  73  59 CALM      29.99F HX  96
BEAVER COUNTY  PTSUNNY   86  70  58 CALM      30.00S
BUTLER*        MOSUNNY   88  70  55 S6        30.02S
PITTSBURGH INT CLOUDY    88  68  51 SW6       29.99S
PITTSBURGH     MOSUNNY   87  64  46 S8        29.99S
INDIANA*       PTSUNNY   86  70  58 CALM      30.04S
LATROBE        MOSUNNY   88  72  58 CALM      30.00F
WASHINGTON CO* NOT AVBL
$$

PAZ004>006-010>012-017>019-024>028-033>037-041-042-045-046-049>053-291900-
CENTRAL PENNSYLVANIA

CITY           SKY/WX    TMP DP  RH WIND       PRES   REMARKS
BRADFORD       MOSUNNY   83  55  38 VRB6      30.05F
DUBOIS         PTSUNNY   84  65  52 VRB6      30.03F
CLEARFIELD     PTSUNNY   85  66  53 VRB3      30.03F
JOHNSTOWN      PTSUNNY   82  67  60 SE7       30.06F
ALTOONA        PTSUNNY   84  70  62 S3        30.04F
STATE COLLEGE  MOSUNNY   84  68  58 S6        30.02F
WILLIAMSPORT   MOSUNNY   88  66  48 SW9       29.97F
SELINSGROVE    MOSUNNY   88  68  51 SW5       29.99F
FT INDIANTOWN  PTSUNNY   87  68  52 SE5       29.99F
CAPITAL CITY   SUNNY     89  69  51 SW10      29.98F
HARRISBURG     PTSUNNY   90  72  55 VRB5      29.97F HX  97
YORK           MOSUNNY   87  75  67 CALM      30.00F HX  96
$$

PAZ038>040-043-044-047-048-054-055-060>062-067>071-291900-
EASTERN PENNSYLVANIA

CITY           SKY/WX    TMP DP  RH WIND       PRES   REMARKS
SCRANTON       SUNNY     90  63  40 VRB5      30.00F
MOUNT POCONO   NOT AVBL
ALLENTOWN      PTSUNNY   92  68  45 SW8       29.98F HX  96
QUAKERTOWN*    PTCLDY    91  68  46 S8        30.01S HX  95
READING        MOSUNNY   89  67  47 SW9       29.98F
LANCASTER      MOSUNNY   88  69  53 VRB3      29.99F
COATESVILLE    LGT RAIN  86  72  62 SW3       30.02F
POTTSTOWN      MOSUNNY   88  70  55 VRB3      30.00F
BLUE BELL      MOSUNNY   91  72  52 W5        29.98F HX  98
DOYLESTOWN     MOSUNNY   87  66  49 VRB5      29.98F
WILLOW GROVE   NOT AVBL
NORTH PHILA    MOSUNNY   91  65  41 S8        29.99F
PHILADELPHIA   PTSUNNY   91  70  49 W10       29.98F HX  96
$$


USA.gov is the U.S. government's official web portal to all federal, state and local government web resources and services.